Koyuk, AK

9:31 AM AKST on February 27, 2017 (GMT -0900)
Koyuk

Weather History for PAKK - January, 2014

Change the Weather History Date:

Tuesday, January 28, 2014

  Actual Average Record
Temperature  
Mean Temperature 40 °F -  
Max Temperature 44 °F 5 °F 44 °F (2014)
Min Temperature 37 °F 0 °F -29 °F (2012)
Degree Days  
Heating Degree Days 24    
Moisture  
Dew Point 27 °F    
Average Humidity 59    
Maximum Humidity 65    
Minimum Humidity 49    
Precipitation  
Precipitation 0.00 in - - ()
Sea Level Pressure  
Sea Level Pressure 29.78 in    
Wind  
Wind Speed 4 mph (NE)    
Max Wind Speed 8 mph    
Max Gust Speed -    
Visibility 10 miles    
Events      
Averages and records for this station are not official NWS values.
T = Trace of Precipitation, MM = Missing Value Source: NWS Daily Summary

Daily Weather History Graph

Daily Weather History Graph

Search for Another Location

Airport or City:

Trip Planner

Search our weather history database for the weather conditions in past years. The results will help you decide how hot, cold, wet, or windy it might be!

Date:

Astronomy

Jan. 28, 2014 Rise Set
Actual Time 10:43 AM AKST 5:13 PM AKST
Civil Twilight 9:41 AM AKST 6:14 PM AKST
Nautical Twilight 8:39 AM AKST 7:16 PM AKST
Astronomical Twilight 7:41 AM AKST 8:14 PM AKST
Moon 8:54 AM AKST (1/28) 3:01 PM AKST (1/28)
Length of Visible Light 8h 33m
Length of Day
6h 30m
Waning Crescent, 6% of the Moon is Illuminated
Jan 28
Waning Crescent
Jan 30
New
Feb 6
First Quarter
Feb 14
Full
Feb 22
Last Quarter

Hourly Weather History & Observations

Time (AKST) Temp. Windchill Dew Point Humidity Pressure Visibility Wind Dir Wind Speed Gust Speed Precip Events Conditions
12:16 AM 44.6 °F - 28.4 °F 53% 29.62 in 10.0 mi Calm Calm - N/A   Clear
12:36 AM 44.6 °F - 28.4 °F 53% 29.63 in 10.0 mi Calm Calm - N/A   Clear
12:56 AM 44.6 °F 43.1 °F 26.6 °F 49% 29.64 in 10.0 mi West 3.5 mph - N/A   Clear
1:16 AM 44.6 °F - 26.6 °F 49% 29.65 in 10.0 mi Calm Calm - N/A   Clear
1:36 AM 41.0 °F 37.1 °F 26.6 °F 57% 29.66 in 10.0 mi ENE 5.8 mph - N/A   Clear
1:56 AM 39.2 °F 35.0 °F 26.6 °F 61% 29.67 in 10.0 mi NE 5.8 mph - N/A   Clear
2:16 AM 39.2 °F 35.0 °F 26.6 °F 61% 29.68 in 10.0 mi NE 5.8 mph - N/A   Clear
2:36 AM 41.0 °F 37.1 °F 28.4 °F 61% 29.69 in 10.0 mi East 5.8 mph - N/A   Clear
2:56 AM 39.2 °F 37.0 °F 26.6 °F 61% 29.70 in 10.0 mi ENE 3.5 mph - N/A   Clear
3:16 AM 41.0 °F 37.1 °F 28.4 °F 61% 29.70 in 10.0 mi ESE 5.8 mph - N/A   Clear
3:36 AM 39.2 °F 37.0 °F 26.6 °F 61% 29.70 in 10.0 mi East 3.5 mph - N/A   Clear
3:56 AM 39.2 °F 35.0 °F 26.6 °F 61% 29.71 in 10.0 mi East 5.8 mph - N/A   Clear
4:16 AM 39.2 °F - 26.6 °F 61% 29.72 in 10.0 mi Calm Calm - N/A   Clear
4:36 AM 39.2 °F 35.9 °F 26.6 °F 61% 29.72 in 10.0 mi South 4.6 mph - N/A   Clear
4:56 AM 41.0 °F 36.4 °F 24.8 °F 53% 29.72 in 10.0 mi SSE 6.9 mph - N/A   Clear
5:16 AM 37.4 °F 33.8 °F 24.8 °F 60% 29.73 in 10.0 mi South 4.6 mph - N/A   Clear
5:36 AM 39.2 °F 37.0 °F 24.8 °F 56% 29.73 in 10.0 mi ENE 3.5 mph - N/A   Clear
5:56 AM 39.2 °F 37.0 °F 24.8 °F 56% 29.74 in 10.0 mi East 3.5 mph - N/A   Clear
6:16 AM 37.4 °F 32.8 °F 24.8 °F 60% 29.75 in 10.0 mi ENE 5.8 mph - N/A   Clear
6:36 AM 37.4 °F 32.8 °F 26.6 °F 65% 29.75 in 10.0 mi ENE 5.8 mph - N/A   Clear
6:56 AM 37.4 °F 32.1 °F 24.8 °F 60% 29.75 in 10.0 mi ENE 6.9 mph - N/A   Scattered Clouds
7:16 AM 37.4 °F 32.8 °F 26.6 °F 65% 29.76 in 10.0 mi ENE 5.8 mph - N/A   Partly Cloudy
7:36 AM 37.4 °F 32.8 °F 26.6 °F 65% 29.76 in 10.0 mi ENE 5.8 mph - N/A   Partly Cloudy
7:56 AM 39.2 °F 33.6 °F 26.6 °F 61% 29.77 in 10.0 mi ENE 8.1 mph - N/A   Mostly Cloudy
8:16 AM 39.2 °F 35.0 °F 26.6 °F 61% 29.77 in 10.0 mi ENE 5.8 mph - N/A   Overcast
8:36 AM 39.2 °F 35.0 °F 26.6 °F 61% 29.77 in 10.0 mi East 5.8 mph - N/A   Mostly Cloudy
8:56 AM 39.2 °F 35.0 °F 26.6 °F 61% 29.77 in 10.0 mi NE 5.8 mph - N/A   Overcast
9:16 AM 39.2 °F 35.0 °F 26.6 °F 61% 29.77 in 10.0 mi NE 5.8 mph - N/A   Overcast
9:36 AM 39.2 °F 37.0 °F 26.6 °F 61% 29.78 in 10.0 mi North 3.5 mph - N/A   Overcast
9:56 AM 41.0 °F - 24.8 °F 53% 29.78 in 10.0 mi Calm Calm - N/A   Overcast
10:16 AM 41.0 °F - 24.8 °F 53% 29.78 in 10.0 mi Calm Calm - N/A   Overcast
10:36 AM 42.8 °F - 24.8 °F 49% 29.79 in 10.0 mi Calm Calm - N/A   Overcast
10:56 AM 42.8 °F - 24.8 °F 49% 29.79 in 10.0 mi Calm Calm - N/A   Overcast
11:16 AM 39.2 °F - 24.8 °F 56% 29.79 in 10.0 mi Calm Calm - N/A   Overcast
11:36 AM 39.2 °F 37.0 °F 24.8 °F 56% 29.80 in 10.0 mi NE 3.5 mph - N/A   Overcast
11:56 AM 39.2 °F 37.0 °F 26.6 °F 61% 29.80 in 10.0 mi NE 3.5 mph - N/A   Overcast
12:16 PM 39.2 °F - 26.6 °F 61% 29.82 in 10.0 mi Calm Calm - N/A   Overcast
12:36 PM 41.0 °F - 26.6 °F 57% 29.82 in 10.0 mi Calm Calm - N/A   Overcast
12:56 PM 41.0 °F 37.1 °F 24.8 °F 53% 29.82 in 10.0 mi ENE 5.8 mph - N/A   Overcast
1:16 PM 41.0 °F 36.4 °F 26.6 °F 57% 29.82 in 10.0 mi NE 6.9 mph - N/A   Overcast
1:36 PM 41.0 °F 36.4 °F 26.6 °F 57% 29.82 in 10.0 mi ENE 6.9 mph - N/A   Overcast
1:56 PM 41.0 °F 37.1 °F 26.6 °F 57% 29.83 in 10.0 mi ENE 5.8 mph - N/A   Overcast
2:16 PM 39.2 °F 34.2 °F 28.4 °F 65% 29.82 in 10.0 mi NE 6.9 mph - N/A   Overcast
2:36 PM 41.0 °F 37.1 °F 28.4 °F 61% 29.82 in 10.0 mi NE 5.8 mph - N/A   Overcast
2:56 PM 41.0 °F 37.1 °F 28.4 °F 61% 29.82 in 10.0 mi ENE 5.8 mph - N/A   Overcast
3:16 PM 41.0 °F 36.4 °F 28.4 °F 61% 29.82 in 10.0 mi NE 6.9 mph - N/A   Overcast
3:36 PM 39.2 °F 35.9 °F 28.4 °F 65% 29.82 in 10.0 mi ENE 4.6 mph - N/A   Overcast
3:56 PM 39.2 °F 35.0 °F 28.4 °F 65% 29.82 in 10.0 mi NE 5.8 mph - N/A   Overcast
4:16 PM 39.2 °F 35.0 °F 28.4 °F 65% 29.82 in 10.0 mi NE 5.8 mph - N/A   Mostly Cloudy
4:36 PM 39.2 °F 34.2 °F 28.4 °F 65% 29.82 in 10.0 mi NE 6.9 mph - N/A   Scattered Clouds
4:56 PM 39.2 °F 35.0 °F 28.4 °F 65% 29.82 in 10.0 mi NE 5.8 mph - N/A   Mostly Cloudy
5:16 PM 39.2 °F 35.0 °F 28.4 °F 65% 29.82 in 10.0 mi NE 5.8 mph - N/A   Overcast
5:36 PM 41.0 °F 37.1 °F 28.4 °F 61% 29.82 in 10.0 mi NE 5.8 mph - N/A   Overcast
5:56 PM 39.2 °F 34.2 °F 28.4 °F 65% 29.82 in 10.0 mi NNE 6.9 mph - N/A   Mostly Cloudy
6:16 PM 39.2 °F 35.0 °F 28.4 °F 65% 29.82 in 10.0 mi NE 5.8 mph - N/A   Mostly Cloudy
6:36 PM 39.2 °F 37.0 °F 26.6 °F 61% 29.82 in 10.0 mi ENE 3.5 mph - N/A   Overcast
6:56 PM 41.0 °F 37.1 °F 26.6 °F 57% 29.82 in 10.0 mi NE 5.8 mph - N/A   Overcast
7:16 PM 41.0 °F 38.0 °F 26.6 °F 57% 29.82 in 10.0 mi NE 4.6 mph - N/A   Overcast
7:36 PM 39.2 °F 35.0 °F 26.6 °F 61% 29.82 in 10.0 mi NE 5.8 mph - N/A   Overcast
7:56 PM 39.2 °F 34.2 °F 26.6 °F 61% 29.82 in 10.0 mi NE 6.9 mph - N/A   Overcast
8:16 PM 39.2 °F 35.9 °F 26.6 °F 61% 29.82 in 10.0 mi NE 4.6 mph - N/A   Overcast
8:36 PM 41.0 °F 37.1 °F 26.6 °F 57% 29.82 in 10.0 mi NE 5.8 mph - N/A   Overcast
8:56 PM 39.2 °F 34.2 °F 26.6 °F 61% 29.82 in 10.0 mi NNE 6.9 mph - N/A   Overcast
9:16 PM 41.0 °F 37.1 °F 26.6 °F 57% 29.82 in 10.0 mi NE 5.8 mph - N/A   Overcast
9:36 PM 41.0 °F 38.0 °F 24.8 °F 53% 29.82 in 10.0 mi NE 4.6 mph - N/A   Overcast
9:56 PM 39.2 °F 35.0 °F 26.6 °F 61% 29.82 in 10.0 mi NNE 5.8 mph - N/A   Overcast
10:16 PM 39.2 °F 35.0 °F 24.8 °F 56% 29.82 in 10.0 mi NE 5.8 mph - N/A   Mostly Cloudy
10:36 PM 39.2 °F 34.2 °F 24.8 °F 56% 29.82 in 10.0 mi NE 6.9 mph - N/A   Mostly Cloudy
10:56 PM 39.2 °F 35.0 °F 24.8 °F 56% 29.82 in 10.0 mi NE 5.8 mph - N/A   Mostly Cloudy
11:16 PM 39.2 °F 34.2 °F 24.8 °F 56% 29.81 in 10.0 mi NNE 6.9 mph - N/A   Mostly Cloudy
11:36 PM 39.2 °F 35.9 °F 24.8 °F 56% 29.82 in 10.0 mi NE 4.6 mph - N/A   Partly Cloudy
11:56 PM 39.2 °F 37.0 °F 24.8 °F 56% 29.82 in 10.0 mi NE 3.5 mph - N/A   Partly Cloudy